Terug naar catalogus

SL-6 R/B(2)

ActiefHEO
NORAD 17081·ROCKET BODY·🇷🇺 Russia

Gelanceerd Nov 15, 1986 vanaf Plesetsk Cosmodrome

Loading…

Volgende Passages (komende 24 uur)

TLE

VersSource: Space-Track

Epoch: Sep 13, 2026, 14:04 UTC

1 17081U 86089D   26256.58633836  .00000118  00000-0  00000-0 0  9991
2 17081  63.5163 117.8513 7023888 252.4304  24.8727  1.95705313284531

Volg SL-6 R/B(2) in realtime met AllMySat

Download on the App Store